Regional Weather Roundup
Issued by NWS

Home | Current Version | Previous Version | Text Only | Print | Product List | Glossary On
Versions: 1 2 3 4 5 6 7 8 9 10 11 12 13 14 15 16 17 18 19 20 21 22 23 24 25 26 27 28 29 30 31 32 33 34 35 36 37 38 39 40 41 42 43 44 45 46 47 48 49 50
000
ASUS46 KPQR 281410
RWROR

OREGON REGIONAL WEATHER ROUNDUP
NATIONAL WEATHER SERVICE PORTLAND OR
600 AM PST SAT FEB 28 2015

NOTE: "FAIR" INDICATES FEW OR NO CLOUDS BELOW 12,000 FEET WITH
NO SIGNIFICANT WEATHER AND/OR OBSTRUCTIONS TO VISIBILITY.

ORZ001>013-281500-
NORTHWEST OREGON


CITY           SKY/WX    TMP DP  RH WIND       PRES   REMARKS
ASTORIA        CLEAR     40  35  83 CALM      30.02R
NEWPORT        CLEAR     41  36  81 N5        29.97R
PORTLAND       PTCLDY    41  39  93 NW6       30.00R
VANCOUVER WA   PTCLDY    40  38  93 CALM      30.00R
SCAPPOOSE      CLEAR     43  38  82 NW5       30.00R
HILLSBORO      CLEAR     36  35  96 CALM      29.99R
AURORA         CLEAR     41  35  79 N10       29.98R
MCMINNVILLE    CLEAR     43  38  82 N10       29.98R
SALEM          CLEAR     37  34  89 CALM      29.96R
CORVALLIS      PTCLDY    43  36  75 N10       29.94R
EUGENE         PTCLDY    39  36  89 N14       29.91R WCI  31
$$

ORZ021-028-281500-
SOUTHWEST OREGON


CITY           SKY/WX    TMP DP  RH WIND       PRES   REMARKS
NORTH BEND     CLOUDY    45  45 100 N6        29.88R
BROOKINGS      PTCLDY    44  44 100 CALM      29.80R
ROSEBURG       CLOUDY    44  41  89 CALM      29.86R
SEXTON SUMMIT  FOG       31  31 100 N8        29.74R VSB 1/4 WCI  23
MEDFORD        CLOUDY    43  40  89 CALM      29.80R
$$

ORZ014>016-041-281500-
COLUMBIA GORGE


CITY           SKY/WX    TMP DP  RH WIND       PRES   REMARKS
TROUTDALE      PTCLDY    48  27  44 VRB7      29.98R
THE DALLES     CLEAR     35  33  92 S3        30.04R
$$

ORZ029>031-041-044-049-050-061>064-502-503-505>511-281500-
EASTERN OREGON


CITY           SKY/WX    TMP DP  RH WIND       PRES   REMARKS
REDMOND        CLOUDY    31  22  69 N13       29.91R WCI  21
BEND           MOCLDY    28  23  80 N13G22    29.89R WCI  18
PRINEVILLE     CLOUDY    32  23  69 N15G22    29.88R WCI  22
KLAMATH FALLS  MOCLDY    30  28  92 CALM      29.73R
LAKEVIEW       MOCLDY    27  25  93 N10       29.70S WCI  17
HERMISTON      PTCLDY    37  16  42 N9        30.02R WCI  30
PENDLETON      PTCLDY    33  19  56 NW3       29.97R
JOHN DAY       CLOUDY    33  32  97 W7        29.80R WCI  27
MEACHAM        CLOUDY    28  26  92 VRB6      29.85R FOG     WCI  22
LA GRANDE      PTCLDY    36  23  60 NW14      29.84R WCI  27
BAKER CITY     MOCLDY    31  22  69 NW10      29.80R WCI  22
BURNS          CLOUDY    33  30  88 N12       29.72R FOG     WCI  24
ROME             N/A     31  28  89 NE3       29.67R
ONTARIO        CLOUDY    38  35  89 SW9       29.79R WCI  31
$$


USA.gov is the U.S. government's official web portal to all federal, state and local government web resources and services.